Date,TemperatureHighF,TemperatureAvgF,TemperatureLowF,DewpointHighF,DewpointAvgF,DewpointLowF,HumidityHigh,HumidityAvg,HumidityLow,PressureMaxIn,PressureMinIn,WindSpeedMaxMPH,WindSpeedAvgMPH,GustSpeedMaxMPH,PrecipitationSumIn
2013-3-1,37.7,34.6,32.2,32.7,30.6,28.5,96,85,74,30.24,30.12,11,2,15,0.00
2013-3-2,43.1,32.7,24.0,30.3,26.7,22.5,96,80,50,30.26,30.13,7,1,11,0.01
2013-3-3,39.5,30.3,21.4,31.0,26.1,20.1,96,85,68,30.24,30.10,8,2,14,0.00
2013-3-4,44.7,33.4,25.4,31.5,27.1,23.8,96,80,49,30.27,30.17,11,2,13,0.00
2013-3-5,50.8,33.7,22.1,33.9,27.6,20.6,95,81,51,30.17,29.87,10,4,14,0.01
2013-3-6,53.2,36.3,23.9,38.2,30.6,22.6,97,82,54,29.87,29.64,9,3,11,0.01
2013-3-7,49.0,39.2,30.5,43.4,36.5,29.2,96,90,80,29.65,29.58,9,2,9,0.00
2013-3-8,47.3,43.1,40.0,44.6,41.7,38.9,100,95,90,29.64,29.60,9,2,12,0.01
2013-3-9,42.3,40.2,38.0,41.5,39.6,37.4,100,98,96,29.64,29.56,6,1,8,0.06
2013-3-10,54.8,44.7,39.6,46.1,41.2,38.8,100,89,57,29.56,29.41,8,2,12,0.02
2013-3-11,43.9,31.1,26.3,41.9,28.1,22.8,95,89,84,29.70,29.42,9,2,15,0.06
2013-3-12,29.4,27.0,25.2,25.9,23.9,22.6,92,88,84,29.69,29.52,8,2,15,0.00
2013-3-13,28.9,25.3,23.3,23.6,21.4,18.9,94,85,75,29.73,29.51,8,2,14,0.02
2013-3-14,32.1,25.3,19.2,19.0,17.7,15.1,92,74,52,29.83,29.73,14,3,21,0.03
2013-3-15,32.1,22.7,14.8,22.4,17.9,12.9,94,83,58,30.09,29.82,15,2,19,0.00
2013-3-16,38.6,25.0,11.2,22.7,16.2,9.0,93,73,39,30.16,30.02,8,2,12,0.02
2013-3-17,42.7,32.1,19.9,24.8,20.9,16.2,90,65,46,30.02,29.66,18,5,25,0.00
2013-3-18,41.7,33.3,28.4,33.8,28.1,23.3,96,82,63,29.66,29.23,12,3,16,0.02
2013-3-19,41.8,35.3,31.3,36.3,32.7,30.4,97,91,79,29.58,29.22,10,2,12,0.28
2013-3-20,49.9,39.8,29.9,39.3,34.7,28.3,96,83,64,29.77,29.58,10,2,14,0.06
2013-3-21,39.1,35.1,27.5,36.1,29.8,23.8,95,81,64,30.07,29.77,20,4,22,0.01
2013-3-22,31.7,28.6,23.6,25.9,23.8,21.8,95,83,70,30.12,30.06,9,2,14,0.00
2013-3-23,32.1,26.4,18.4,23.3,16.4,7.6,80,66,46,30.20,30.10,17,5,22,0.00
2013-3-24,34.6,24.2,16.0,16.1,10.1,6.9,71,56,33,30.20,30.07,20,6,29,0.00
2013-3-25,32.2,26.4,22.4,19.7,16.1,14.2,78,65,50,30.08,29.92,18,5,24,0.00
2013-3-26,33.3,28.4,23.8,17.6,12.9,8.1,73,53,36,29.92,29.84,20,4,21,0.00
2013-3-27,29.7,27.5,24.9,26.2,21.8,15.0,94,80,61,29.92,29.87,11,3,13,0.00
2013-3-28,39.0,32.7,26.7,29.7,27.5,25.1,94,82,67,29.90,29.75,12,3,18,0.02
2013-3-29,41.6,35.1,28.4,34.1,28.9,24.4,96,79,55,29.74,29.64,15,3,21,0.07
2013-3-30,45.2,35.1,26.9,31.7,28.1,24.6,92,77,52,29.73,29.65,12,2,17,0.00
2013-3-31,36.3,32.7,30.2,28.9,27.2,25.0,92,80,67,29.79,29.69,14,4,20,0.00